Find Starlink 4296

NORAD ID: 52995 Int'l Des: 2022-076 Owner: SPXS Country: US Constellation: starlink operational
LEOCIRCULAR

現在のビュー

3D地球を読み込み中...

About Starlink 4296

Starlink 4296 (NORAD 52995) is a starlink constellation satellite (v1.5) launched Jul 7, 2022 by SPXS of US. It operates in LEO, CIRCULAR orbit with a mass of 297.00 kg.

Starlink 4296について

説明を読み込み中...

次回通過

Passes for default location (London). Set your location on the main map for personalized predictions.

高度履歴

Loading altitude history...

軌道要素

1 52995U 22076K 26173.83335648 .00065002 00000-0 31666-2 0 9993
2 52995 53.1585 341.6970 0002694 82.7434 159.1564 15.17764129 5849
Epoch: Jun 22, 2026 • Age: 14 hours

現在のステータス

高度 532.5 km
速度 7.60 km/s
衛星直下点 -52.78°S, 167.07°W
打ち上げ日 Jul 7, 2022
運用期間 3.9 years
タイプ internet

技術仕様

分類 Payload
質量 297.00 kg
乾燥質量 275.00 kg
総質量 297.00 kg
長さ 0.20 m
直径 2.80 m
スパン 9.00 m
形状 Box + pan
製造者 SPXS
バスタイプ Starlink
フェーズステータス In Orbit
所有者/国 SPXS/US

Most Searched